Regional Weather Roundup
Issued by NWS Burlington, VT

Current Version | Previous Version | Text Only | Print | Product List | Glossary On
Versions: 1 2 3 4 5 6 7 8 9 10 11 12 13 14 15 16 17 18 19 20 21 22 23 24 25 26 27 28 29 30 31 32 33 34 35 36 37 38 39 40 41 42 43 44 45 46 47 48 49 50
000
ASUS41 KBTV 301330
RWRBTV
VERMONT REGIONAL WEATHER ROUNDUP
NATIONAL WEATHER SERVICE BURLINGTON VT
900 AM EDT TUE AUG 30 2016

NOTE: "FAIR" INDICATES FEW OR NO CLOUDS BELOW 12,000 FEET WITH NO
SIGNIFICANT WEATHER AND/OR OBSTRUCTIONS TO VISIBILITY.

* THESE REPORTS ARE NOT UNDER NWS QUALITY CONTROL AND/OR DO NOT
  REPORT WEATHER SUCH AS PRECIPITATION AND FOG.

VTZ001>019-301400-
_____VERMONT_____


CITY           SKY/WX    TMP DP  RH WIND       PRES   REMARKS
BURLINGTON     MOSUNNY   66  55  67 S5        30.17F
MONTPELIER     PTSUNNY   56  55  97 CALM      30.23S
MORRISVILLE    CLOUDY    57  55  93 CALM      30.20F FOG
ST. JOHNSBURY*   N/A     54  52  93 MISG      30.18F
LYNDONVILLE*   FOG       54  53  97 CALM      30.21F VSB<1/4
MIDDLEBURY*    FAIR      66  61  84 S5        30.18F
RUTLAND*       SUNNY     59  53  80 CALM      30.21F
SPRINGFIELD    MOSUNNY   58  54  86 CALM      30.21S
HIGHGATE*      FAIR      65  59  81 CALM      30.16F
NEWPORT*       PTSUNNY   60  58  92 CALM      30.18F
BENNINGTON     SUNNY     62  55  77 CALM      30.20F
SUTTON*          N/A     55 N/A N/A MISG        N/A
MT. MANSFIELD*   N/A     54 N/A N/A NW9         N/A

_____LAKE CHAMPLAIN_____


CITY           SKY/WX    TMP DP  RH WIND       PRES   REMARKS
BURTON ISLAND*   N/A     64  59  82 S8          N/A
COLCHESTER RF*   N/A     64  61  88 S14         N/A
DIAMOND ISL*     N/A     63  57  82 S3          N/A

$$

NYZ007-026>031-035-052-083-087-301400-
_____NORTHERN NEW YORK_____


CITY           SKY/WX    TMP DP  RH WIND       PRES   REMARKS
PLATTSBURGH    CLOUDY    66  56  70 S6        30.16F
SARANAC LAKE   SUNNY     56  54  93 S3        30.20S
MASSENA        SUNNY     64  57  78 SW6       30.17F
OGDENSBURG*    SUNNY     68  61  77 SW5       30.15F
POTSDAM*       PTSUNNY   70  63  78 SW5       30.16F
WATERTOWN      SUNNY     67  57  70 SW3       30.17S
FT DRUM        SUNNY     64  56  76 S5        30.17S
ALBANY         MOSUNNY   66  58  75 N3        30.19F
GLENS FALLS    SUNNY     65  57  75 CALM      30.19F

$$
NHZ002-005-011-301400-
_____NEW HAMPSHIRE_____


CITY           SKY/WX    TMP DP  RH WIND       PRES   REMARKS
LEBANON        CLOUDY    57  54  89 CALM      30.19F FOG
KEENE          MOSUNNY   59  54  83 CALM      30.20F
MT WASHINGTON  FOG       43  43 100 W20         N/A  VSB 1/16
PLYMOUTH       FAIR      55  55  97 CALM      30.18F
WHITEFIELD     PTSUNNY   56  53  90 CALM      30.21R

$$

_____REGIONAL QUEBEC LOCATIONS_____


CITY           SKY/WX    TMP DP  RH WIND       PRES   REMARKS
MONTREAL       PTSUNNY   66  59  77 SW9G20    30.14S
QUEBEC CITY    PTSUNNY   61  57  88 SW10      30.10S
SHERBROOKE     PTSUNNY   61  57  88 SW3       30.15F

_____REGIONAL ONTARIO LOCATIONS_____


CITY           SKY/WX    TMP DP  RH WIND       PRES   REMARKS
OTTAWA         PTSUNNY   68  61  77 S6        30.14F

______KEY______
VSB  - VISIBILITY IN MILES
WCI  - WIND CHILL INDEX
HX   - HEAT INDEX
$$
NNNN



USA.gov is the U.S. government's official web portal to all federal, state and local government web resources and services.